Theta_e
307 307 307 307 307 308 308 308 309 309 310 310 311 311 312 313 313 313 312 312 311 313 312 312 313 313 313 315 315 313 310 311 311 311 314 311 312 311 313 314 316 316 316 317 317
307 307 307 307 308 308 308 309 309 309 310 310 311 312 312 313 314 314 314 313 312 311 311 312 313 313 314 314 313 309 308 311 309 309 312 312 313 312 313 313 314 314 316 316 318
307 307 308 308 308 308 308 308 309 309 310 310 311 311 312 314 315 315 313 313 313 311 311 313 313 314 314 314 313 308 308 309 312 313 313 312 312 313 312 311 314 315 315 316 317
308 308 308 308 308 308 308 308 308 309 309 310 310 311 312 314 310 312 311 311 312 311 312 313 314 314 311 312 312 312 311 311 313 314 313 311 313 312 312 315 315 315 315 315 316
308 308 308 309 309 309 309 309 309 308 308 309 310 311 312 314 316 315 311 311 311 311 312 313 313 313 310 313 312 311 311 313 314 314 314 313 313 312 313 315 315 315 316 316 315
309 309 309 309 309 309 309 309 309 309 309 309 309 309 311 312 315 317 315 311 311 312 312 313 313 313 313 312 310 313 313 313 314 314 313 313 313 314 315 315 315 315 316 316 315
310 310 310 310 310 310 309 309 309 309 309 309 310 309 310 311 313 317 316 312 312 313 313 313 314 314 313 312 313 312 312 311 311 313 313 313 311 311 314 315 315 315 315 315 316
314 312 310 310 310 310 310 310 309 309 309 309 309 309 310 311 312 315 317 314 312 312 313 313 313 315 314 312 311 310 308 312 310 311 312 312 312 310 312 312 314 315 315 315 316
321 319 317 312 309 310 310 310 310 310 309 309 309 309 309 310 312 315 316 315 314 313 313 312 312 313 312 309 310 307 311 311 311 310 310 310 311 310 313 312 313 313 314 314 315
322 322 322 321 316 312 309 308 309 309 309 309 309 309 310 311 312 313 316 316 315 314 313 313 313 308 305 309 310 311 312 310 311 311 310 310 309 308 313 311 313 314 315 315 314
322 323 323 323 323 322 317 310 307 307 307 309 309 309 310 311 313 314 315 315 314 313 310 310 310 311 309 309 309 308 310 311 310 310 311 310 309 309 313 311 311 314 316 316 317
320 321 322 322 322 322 323 311 307 311 310 309 308 309 311 312 314 315 315 314 313 310 309 308 310 309 308 307 310 310 312 311 309 309 310 310 311 309 309 312 313 315 316 317 317
320 321 322 322 321 321 321 322 310 310 309 310 310 309 309 310 313 314 315 314 310 309 309 310 311 308 309 309 310 310 310 310 312 310 308 308 310 309 309 309 312 314 316 316 317
317 318 320 322 321 321 322 321 318 309 309 310 309 311 311 311 312 313 314 314 311 311 307 310 310 310 310 310 309 312 308 309 311 312 312 309 312 310 310 309 308 314 316 317 317
312 315 317 319 319 318 321 321 319 313 324 312 309 311 311 310 310 312 312 313 310 310 310 310 310 311 311 311 309 311 308 309 310 311 311 310 312 312 309 311 310 311 315 316 316
309 310 315 317 318 319 320 320 313 319 322 313 311 311 311 310 310 311 312 312 311 310 310 309 310 309 310 309 310 307 309 308 307 309 313 310 312 310 310 311 311 311 315 316 316
305 308 311 316 316 318 319 315 315 317 316 315 313 310 311 310 310 310 310 310 310 312 311 310 310 309 310 310 309 310 311 312 310 311 315 308 311 313 310 309 309 311 315 316 314
302 305 308 314 316 316 316 313 317 313 316 311 311 311 312 310 309 309 309 311 309 308 307 311 310 309 308 310 311 309 311 311 310 309 309 308 312 312 309 310 312 312 313 314 314
296 299 303 308 313 315 313 314 317 312 312 314 313 314 313 312 310 310 309 309 309 306 309 308 309 308 307 309 310 310 312 310 310 296 308 309 308 308 307 307 309 313 312 314 315
298 297 295 303 309 313 314 314 315 312 311 313 318 315 315 313 311 309 308 308 310 308 309 309 310 308 309 310 309 310 309 312 309 311 310 310 309 313 313 312 310 308 312 314 314
298 297 300 297 306 310 313 313 312 313 312 313 314 316 313 313 311 310 311 308 307 308 310 309 310 309 308 309 310 311 311 310 310 309 310 309 312 306 310 309 309 308 312 314 316
297 298 303 305 307 308 309 309 311 311 313 312 312 314 313 312 313 311 310 309 309 308 310 309 310 308 309 308 306 308 310 309 311 310 308 309 314 308 309 309 310 310 313 315 316
298 298 298 306 304 305 305 306 308 310 312 312 313 311 313 313 315 312 310 310 309 309 310 310 312 308 311 310 306 309 307 309 308 307 310 312 315 306 307 309 311 312 314 315 315
298 297 298 301 304 303 303 304 306 308 308 310 312 312 313 314 314 314 311 309 310 310 311 312 314 314 317 313 309 310 308 309 312 313 314 311 314 312 311 311 310 313 315 315 316
298 298 298 296 298 300 304 306 305 305 307 309 309 312 313 314 314 315 313 311 309 309 310 312 315 314 315 313 309 309 310 309 312 313 314 315 313 313 312 310 312 314 315 315 316
298 297 297 297 300 297 298 300 304 305 307 307 307 308 309 312 313 312 312 312 313 308 309 310 315 312 314 313 313 312 309 309 310 312 312 313 313 313 313 313 311 312 313 314 315
297 297 297 297 296 297 297 301 300 299 300 301 302 303 305 308 310 311 311 312 312 313 312 312 312 314 317 314 312 315 313 313 312 310 311 312 312 312 312 312 312 312 313 313 314
Wind_Speed
11 9 8 8 8 7 5 4 4 3 3 3 3 3 2 2 2 4 5 5 5 7 6 5 4 5 7 6 4 5 4 3 6 7 4 10 6 6 6 6 10 10 6 4 18
11 10 8 7 6 6 6 4 3 3 2 2 2 2 2 1 3 5 5 5 5 6 6 6 5 6 5 4 3 4 4 8 5 6 3 8 6 11 6 6 8 10 12 9 15
10 9 7 6 5 4 3 4 4 3 2 3 2 2 2 2 4 4 5 6 6 7 6 6 6 4 4 3 2 4 4 4 4 3 3 6 5 10 8 4 13 14 14 14 15
9 9 8 7 5 4 3 2 2 1 2 3 3 3 1 4 4 4 3 5 7 8 7 6 6 4 3 3 3 4 1 4 4 3 5 6 5 6 13 11 4 11 11 15 17
7 7 7 6 5 4 4 2 1 1 2 2 3 3 2 4 3 5 2 4 7 7 7 6 7 5 6 5 4 3 4 2 2 2 2 4 5 8 12 18 13 8 12 16 18
8 7 6 6 5 4 4 3 2 2 2 1 2 3 2 3 4 6 3 4 5 7 7 7 5 6 8 3 3 3 3 2 2 3 3 3 4 3 5 16 15 16 15 16 19
8 8 8 8 7 6 6 5 4 4 3 3 3 2 3 5 5 7 5 5 5 7 7 7 9 3 7 5 5 3 1 5 2 2 1 2 6 10 16 12 10 16 18 18 21
6 7 7 9 9 9 8 8 7 5 6 5 4 3 3 5 7 8 7 7 6 6 6 7 7 8 3 10 5 4 5 1 2 1 1 3 8 8 6 14 24 22 21 21 24
7 6 6 7 8 10 10 10 9 8 7 7 6 3 3 4 9 10 10 8 7 6 6 6 5 5 6 5 4 6 2 2 7 4 0 3 6 6 4 7 16 18 26 26 26
13 9 8 7 7 7 9 9 9 9 10 8 9 4 6 4 7 12 12 9 6 8 6 4 3 4 4 4 5 5 3 3 5 2 1 4 12 11 19 16 20 20 19 24 29
14 12 10 8 8 7 5 4 5 5 10 6 3 3 3 8 8 10 13 11 9 6 4 2 4 7 11 5 3 5 3 4 4 3 3 7 10 12 27 20 26 28 30 32 33
22 20 16 14 13 7 8 1 1 1 5 10 15 12 6 8 6 11 15 10 7 5 5 5 7 6 6 6 4 3 2 6 5 2 4 6 15 12 15 25 29 35 38 39 38
10 15 18 17 18 17 14 6 4 2 4 6 13 13 14 16 8 15 19 10 4 5 7 7 4 6 7 4 6 4 5 4 6 3 3 6 8 7 6 20 30 38 42 42 43
16 12 8 13 13 16 14 11 7 1 2 6 6 8 14 12 6 13 22 9 3 11 8 5 3 5 4 5 7 4 7 4 2 3 4 2 5 8 7 8 8 27 30 35 39
11 14 12 9 4 5 5 11 9 6 4 2 2 3 10 9 9 8 21 9 9 8 7 8 8 6 4 7 7 6 5 7 3 3 3 2 3 8 3 8 11 21 35 36 36
11 8 12 11 10 8 9 8 14 4 9 2 2 2 5 1 3 5 8 4 4 5 1 4 1 6 7 3 2 10 6 6 4 2 4 9 7 5 5 7 6 11 24 22 19
13 12 11 13 9 12 9 14 1 4 3 3 3 3 2 4 2 3 6 6 7 5 7 1 4 3 4 6 4 1 6 1 3 1 8 2 4 12 7 9 8 14 29 24 19
17 16 14 16 12 11 18 3 7 6 5 1 1 3 7 7 3 3 6 6 6 3 4 8 6 11 7 9 9 9 8 6 7 4 4 3 8 7 9 17 27 30 32 29 23
12 17 17 15 15 19 17 4 8 8 6 8 4 2 3 2 4 2 5 5 9 10 9 6 6 1 3 2 9 6 8 2 4 2 2 5 9 9 8 12 19 30 22 25 22
8 10 16 12 18 20 7 16 7 7 6 2 9 6 6 6 5 7 7 5 6 13 3 5 3 1 2 3 2 4 6 3 1 3 4 6 6 9 5 7 10 7 14 15 10
4 3 3 17 18 11 9 7 5 9 7 7 8 9 7 6 7 5 8 5 7 5 20 5 4 1 3 6 10 3 4 2 4 4 5 2 8 7 8 7 9 9 7 4 2
3 0 5 22 9 6 12 5 9 3 19 11 3 7 7 8 6 5 11 7 10 13 9 6 4 5 9 1 1 1 4 6 4 5 3 2 12 3 6 5 5 10 8 6 1
4 4 3 22 5 9 4 7 6 3 6 6 8 9 9 9 8 10 8 7 15 10 9 8 4 1 6 2 3 5 6 6 4 3 8 7 13 1 5 6 8 11 8 7 8
7 2 6 13 11 6 10 6 6 8 18 13 4 9 2 8 14 8 7 5 17 17 19 14 5 8 12 6 5 5 5 11 13 4 21 10 30 20 3 4 8 14 21 30 32
16 6 6 3 9 6 1 3 8 9 13 10 10 12 9 9 8 11 8 3 2 7 4 9 10 15 21 16 5 8 5 10 17 26 16 30 22 33 17 12 22 31 34 34 38
11 6 6 2 2 7 10 9 8 5 2 6 17 12 14 21 17 13 7 5 7 1 5 4 13 11 18 18 19 13 8 13 22 25 18 29 26 30 21 24 18 27 28 36 39
21 12 7 7 4 3 5 3 5 7 16 22 17 14 17 13 16 25 25 18 7 9 6 5 2 5 17 17 7 9 26 26 19 16 18 20 33 18 20 17 28 27 31 38 42
Wind_Direction
171 177 177 174 170 172 175 177 184 200 202 225 245 255 260 264 230 203 197 203 190 192 190 183 163 138 128 120 107 117 68 178 199 157 228 163 179 181 187 167 180 197 202 180 184
171 173 177 177 175 173 174 188 191 215 231 254 255 267 270 264 208 204 212 203 202 193 187 184 162 140 104 103 85 91 120 215 195 188 192 183 190 174 174 183 213 221 221 212 192
172 170 173 176 175 176 180 185 204 219 248 267 273 279 242 203 185 201 220 210 203 190 189 185 162 135 89 117 91 114 178 186 192 213 188 185 209 183 169 219 220 226 228 218 206
181 175 172 173 171 170 175 201 217 245 261 269 276 279 225 179 187 181 197 200 197 188 184 178 159 120 95 125 106 97 175 175 161 170 160 172 181 206 207 225 226 238 238 232 218
195 202 189 183 186 184 177 180 210 262 291 295 294 300 216 189 195 165 161 165 183 177 182 176 156 137 142 130 105 100 189 197 188 181 186 181 219 229 238 235 239 248 238 237 228
212 216 226 213 208 216 221 212 218 250 274 300 311 294 266 222 203 182 174 153 158 164 164 163 160 143 121 103 108 132 158 223 228 201 214 211 218 228 245 239 236 241 242 242 235
223 229 234 245 236 229 243 251 258 264 275 296 304 317 260 244 210 195 189 171 152 148 154 142 137 158 131 109 106 80 352 328 242 243 242 207 291 237 238 249 241 241 244 241 241
225 227 239 244 255 252 244 250 259 271 285 289 297 306 252 221 206 199 195 179 166 148 159 135 136 124 93 120 51 62 54 9 313 197 299 149 264 269 260 244 249 250 251 249 243
258 243 245 246 245 260 259 254 257 266 271 275 288 278 234 220 209 196 185 175 164 165 162 154 161 102 119 90 28 11 202 218 317 208 7 162 267 273 281 259 258 254 251 252 250
255 259 255 266 260 254 262 260 259 264 264 270 258 274 231 197 194 197 195 192 173 173 155 170 99 73 42 98 213 194 185 239 246 245 194 243 255 274 268 274 273 276 267 257 254
238 247 252 261 271 283 273 264 270 257 232 220 183 184 153 190 184 188 188 180 157 160 151 57 97 208 200 184 126 132 154 223 236 225 219 237 260 263 270 274 266 266 265 262 258
246 246 253 256 264 269 285 262 239 275 309 238 240 233 210 189 177 187 181 175 166 158 129 42 219 207 127 146 132 142 146 262 277 236 193 275 272 254 246 259 255 261 262 259 259
232 245 241 249 262 263 256 269 272 278 278 261 232 233 230 223 216 195 182 175 132 130 187 169 218 143 133 143 147 194 181 225 234 337 251 335 284 277 264 250 258 258 259 260 256
239 244 239 236 247 256 242 246 230 185 15 261 222 222 210 188 229 195 187 172 157 190 159 226 221 143 139 183 155 215 205 158 174 40 259 47 287 285 255 250 249 256 256 258 260
241 240 246 234 217 201 233 218 186 141 264 270 140 197 170 183 149 185 181 195 163 172 138 233 171 170 170 197 157 219 130 158 142 176 348 328 278 259 26 276 251 250 256 261 266
237 237 218 205 209 222 209 193 163 134 226 271 100 137 127 56 94 110 161 156 132 117 222 224 166 168 192 104 135 146 80 51 51 84 286 190 189 201 185 218 260 259 265 270 280
246 230 221 202 201 209 219 154 29 225 14 203 177 161 132 149 105 149 160 167 160 141 223 115 213 187 157 91 49 128 109 309 326 18 236 322 216 261 250 236 228 253 269 282 280
248 238 219 206 176 200 176 112 200 207 216 181 149 87 191 158 189 152 135 185 235 122 135 179 267 167 187 185 171 200 165 171 206 201 262 33 238 252 236 262 258 262 264 270 277
260 252 244 211 204 191 172 218 217 158 190 164 75 132 236 171 153 153 209 224 201 180 180 169 267 223 157 145 153 201 208 151 93 71 37 222 277 289 269 277 267 263 271 278 275
285 269 255 213 203 207 205 228 234 163 141 183 191 157 191 178 169 175 181 219 215 191 169 211 273 316 150 128 42 162 171 87 350 188 242 268 269 236 272 264 265 284 286 307 290
295 267 189 191 189 198 236 224 211 191 189 184 201 188 201 167 206 216 206 241 210 189 195 155 163 223 134 210 167 144 211 135 136 160 186 277 265 214 219 241 266 291 300 358 66
192 224 156 165 169 203 225 206 208 160 215 240 215 230 206 169 197 237 220 234 184 143 168 212 160 197 207 238 198 103 219 153 148 221 243 171 267 167 225 218 274 296 300 327 253
203 244 198 178 193 212 250 241 231 160 196 192 220 221 235 214 233 204 234 203 188 164 171 179 180 328 334 12 356 211 202 188 124 96 217 187 258 232 228 275 263 290 314 294 307
186 221 225 209 235 203 221 250 228 219 236 256 250 221 208 250 234 247 245 205 216 202 204 172 153 190 230 199 131 192 210 203 200 182 242 224 254 247 188 262 286 292 299 304 304
193 216 187 210 240 218 188 274 227 224 227 237 247 243 226 237 235 253 266 327 225 252 232 176 211 218 239 242 188 198 190 199 207 228 226 251 240 259 250 241 255 273 280 281 280
180 179 185 231 217 178 211 227 225 235 295 225 234 252 236 242 246 260 215 207 225 48 202 216 239 208 244 237 234 233 196 211 217 234 242 252 260 258 263 271 275 263 266 271 272
216 205 163 205 175 147 207 201 246 224 258 244 259 280 285 278 308 278 271 256 220 218 208 226 243 200 238 239 217 234 233 231 231 226 218 234 247 266 271 264 259 266 260 260 266